Regional Weather Roundup
Issued by NWS

Home | Current Version | Previous Version | Text Only | Print | Product List | Glossary On
Versions: 1 2 3 4 5 6 7 8 9 10 11 12 13 14 15 16 17 18 19 20 21 22 23 24 25 26 27 28 29 30 31 32 33 34 35 36 37 38 39 40 41 42 43 44 45 46 47 48 49 50
692
ASUS44 KLIX 221701
RWRLA
LOUISIANA WEATHER ROUNDUP
NATIONAL WEATHER SERVICE NEW ORLEANS LA
1200 PM CDT MON SEP 22 2014

NOTE: "FAIR" INDICATES FEW OR NO CLOUDS BELOW 12,000 FEET WITH NO
      SIGNIFICANT WEATHER AND/OR OBSTRUCTIONS TO VISIBILITY.
      SKY/WX - SKY CONDITION AND SIGNIFICANT WEATHER.
      TMP - AIR TEMPERATURE.    DP   - DEWPOINT TEMPERATURE.
      RH  - RELATIVE HUMIDITY.  PRES - PRESSURE.
      HX  - HEAT INDEX.         WCI  - WIND CHILL INDEX.

*  THESE STATIONS ARE NOT NWS OR FAA STATIONS AND ARE NOT UNDER
   NWS QUALITY CONTROL.

LAZ040-048-061>063-065-066-069-221800-
SOUTHEAST LOUISIANA

CITY           SKY/WX    TMP DP  RH WIND       PRES   REMARKS
N.O. AUDUBON     N/A     90  68  48 MISG        N/A
N.O. INTL ARPT MOSUNNY   89  67  47 NE8G17    30.04F
N.O. LAKEFRONT SUNNY     85  70  60 NE3       30.05S
N.O. DOWNTOWN* FAIR      88  63  42 N6        30.05S
SLIDELL        SUNNY     87  70  56 CALM      30.03F
BATON ROUGE    SUNNY     86  72  62 N8        30.05F
BOOTHVILLE     SUNNY     85  72  65 NE6       30.04F
BELLE CHASSE   MOSUNNY   88  65  46 VRB6      30.04S
BOGALUSA*        N/A     86  71  62 N8        30.07R
GALLIANO*      NOT AVBL
NEW ROADS*     CLOUDY    83  71  67 N9        30.07S
GONZALES*      FAIR      86  73  63 N3        30.04F
HAMMOND*       NOT AVBL
HOUMA*         SUNNY     88  45  22 N7        30.04S
PORT FOURCHON* SUNNY     86  72  62 NE10      30.07F

$$

LAZ041-044-053-054-221800-
SOUTHWEST LOUISIANA

CITY           SKY/WX    TMP DP  RH WIND       PRES   REMARKS
LAKE CHARLES   SUNNY     86  72  62 N8        30.07F
LAFAYETTE      SUNNY     86  73  65 NE6       30.05F
PATTERSON      SUNNY     88  72  58 NE6       30.08S
SALT POINT       N/A     89  69  51 VRB5      30.04S
NEW IBERIA     SUNNY     87  73  62 NW6       30.05F
CHENAULT AIRPK SUNNY     82  72  69 NE7       30.07F

$$

LAZ027-028-221800-
CENTRAL LOUISIANA

CITY           SKY/WX    TMP DP  RH WIND       PRES   REMARKS
FORT POLK      PTSUNNY   79  61  53 NE9       30.12R
ALEXANDRIA INT CLOUDY    80  61  52 NE10      30.11S
ALEXANDRIA     CLOUDY    80  61  52 VRB7      30.12S

$$

LAZ001-002-221800-
NORTHWEST LOUISIANA

CITY           SKY/WX    TMP DP  RH WIND       PRES   REMARKS
SHREVEPORT     SUNNY     81  53  37 NE7G16    30.16F
BARKSDALE AFB  SUNNY     81  52  35 NE9       30.17F
DTN SHREVEPORT SUNNY     80  53  39 E10       30.17F

$$

LAZ014-016-221800-
NORTHEAST LOUISIANA

CITY           SKY/WX    TMP DP  RH WIND       PRES   REMARKS
MONROE         SUNNY     81  53  37 NE14      30.16F
TALLULAH       SUNNY     82  52  35 NE14      30.13F

$$




USA.gov is the U.S. government's official web portal to all federal, state and local government web resources and services.